Orbital Elements at Epoch 2459200.5 (2020-Dec-17.0) TDB
Reference: JPL 28 (heliocentric ecliptic J2000)
Element | Value | Uncertainty (1-sigma) | Units |
e | .08842536669014785 | 1.9426e-08 | |
a | 1.943104662658832 | 5.1566e-09 | au |
q | 1.771284920345888 | 3.7252e-08 | au |
i | 20.62573868111302 | 5.9144e-07 | deg |
node | 203.6057369982882 | 7.3109e-07 | deg |
peri | 273.2902505250783 | 1.3256e-05 | deg |
M | 129.963098585498 | 1.4686e-05 | deg |
tp | 2458843.342088925481 (2019-Dec-25.84208893) | 4.0026e-05 | TDB |
period | 989.3335060970473 2.71 | 3.9382e-06 1.078e-08 | d yr |
n | .3638813380739642 | 1.4485e-09 | deg/d |
Q | 2.114924404971775 | 5.6125e-09 | au |
|
| | Orbit Determination Parameters
Additional Information
|